SAVONLINNA current weather conditions

sailwx.info

Wind from 140 at 5 knots

Visibility: greater than 5.4 NM

Last reported at 2015-Jan-30 06:20 UTC.
Time now 2015-Jan-30 08:02 UTC

Location: N 61°57' E 028°57'.
View on Google Maps.

See reports from other nearby stations

  
Tides and Currents Weather Stations Pressure Air Temp Water Temp Dewpoint Dewpoint Depression Visibility Wind Speed Wind Dir Waves Ship Positions
date/time (UTC)wind fromknots sea level pressurealtimeterstation pressurevisibilityair tempwater tempwave heightnotes
2015-Jan-30 06:20 140 5 5.4
2015-Jan-30 05:50 140 5 5.4
2015-Jan-30 05:20 130 6 5.4
2015-Jan-30 04:50 130 6 4.3 Light snow.
2015-Jan-30 04:20 130 5 5.4 Light snow grains.
2015-Jan-30 03:50 130 5 4.3 Light snow.
2015-Jan-30 03:20 130 7 2.5 Light snow.
2015-Jan-30 02:50 130 6 5.4 Light snow.
2015-Jan-30 02:20 130 7 5.4 Light snow showers.
2015-Jan-30 01:50 130 6 5.4 Light snow showers.
2015-Jan-30 01:20 130 6 5.4 Light snow showers.
2015-Jan-30 00:50 130 6 5.4 Light snow.
2015-Jan-30 00:20 130 7 5.4 Light snow.
2015-Jan-29 23:50 130 7 4.9 Light snow.
2015-Jan-29 23:20 120 8 3.8 Light snow.
2015-Jan-29 22:50 130 7 2.7 Light snow.
2015-Jan-29 22:20 120 7 3.2 Light snow.
2015-Jan-29 21:50 130 8 5.4 Light snow.
2015-Jan-29 21:20 120 8 5.4 Light snow.
2015-Jan-29 20:50 130 9 5.4
2015-Jan-29 20:20 130 7 5.4
2015-Jan-29 19:50 130 8 5.4
2015-Jan-29 19:20 130 8 5.4
2015-Jan-29 18:50 130 8 5.4
2015-Jan-29 18:20 120 8 5.4
2015-Jan-29 17:50 120 7 5.4
2015-Jan-29 17:20 120 9 5.4
2015-Jan-29 16:50 130 9 5.4
2015-Jan-29 16:20 130 8 5.4
2015-Jan-29 15:50 130 8 5.4
2015-Jan-29 15:20 120 8 5.4
2015-Jan-29 14:50 120 8 5.4
2015-Jan-29 14:20 130 7 5.4
2015-Jan-29 13:50 120 7 5.4
2015-Jan-29 13:20 120 10 5.4
2015-Jan-29 12:50 110 10 4.3
2015-Jan-29 12:20 130 7 5.4
2015-Jan-29 11:50 130 8 5.4 Light snow grains.
2015-Jan-29 11:20 150 9 5.4 Light snow.
2015-Jan-29 10:50 150 12 5.4 Light snow.
2015-Jan-29 10:20 140 9 gusting 18 5.4 Light snow.
2015-Jan-29 09:50 150 10 gusting 19 5.4
2015-Jan-29 09:20 150 9 5.4
2015-Jan-29 08:50 140 9 gusting 20 5.4
2015-Jan-29 08:20 150 10 5.4
2015-Jan-29 07:50 150 11 5.4
2015-Jan-29 07:20 160 11 5.4
2015-Jan-29 06:50 140 9 5.4 Light snow grains.
2015-Jan-29 06:20 140 8 5.4
2015-Jan-29 05:50 150 9 5.4
2015-Jan-29 05:20 160 9 5.4
2015-Jan-29 04:50 160 7 5.4
2015-Jan-29 04:20 160 8 5.4
2015-Jan-29 03:50 160 10 5.4
2015-Jan-29 03:20 160 9 4.9
2015-Jan-29 02:50 160 9 4.9
2015-Jan-29 02:20 170 10 5.4
2015-Jan-29 01:50 170 10 5.4
2015-Jan-29 01:20 170 9 5.4
2015-Jan-29 00:50 170 11 5.4
2015-Jan-29 00:20 170 10 gusting 20 5.4 Light snow.
2015-Jan-28 23:50 180 10 5.4 Light snow.
2015-Jan-28 23:20 180 11 5.4 Light snow.
2015-Jan-28 22:50 180 11 5.4 Light rain snow.
2015-Jan-28 22:20 170 13 5.4 Light snow.
2015-Jan-28 21:50 170 11 2.4 Light snow.
2015-Jan-28 21:20 170 11 gusting 23 2.3 Light snow.
2015-Jan-28 20:50 170 12 gusting 24 2.1 Light snow.
2015-Jan-28 20:20 170 11 1.2 Light snow.
2015-Jan-28 19:50 170 10 1.1 Light snow.
2015-Jan-28 19:20 170 11 1.3 Light snow.
2015-Jan-28 18:50 170 10 1.0 Light snow.
2015-Jan-28 18:20 170 11 1.0 Light snow.
2015-Jan-28 17:50 170 12 0.9 Light snow.
2015-Jan-28 17:20 170 11 1.6 Light snow.
2015-Jan-28 16:50 170 11 1.1 Light snow.
2015-Jan-28 16:20 170 11 1.3 Light snow.
2015-Jan-28 15:50 170 11 2.2 Light snow.
2015-Jan-28 15:20 170 10 5.4
2015-Jan-28 14:50 180 11 gusting 22 5.4
2015-Jan-28 14:20 170 10 5.4
2015-Jan-28 13:50 170 11 5.4
2015-Jan-28 13:20 180 9 5.4 Light snow.
2015-Jan-28 12:50 170 9 4.3-1.0 Light snow.
2015-Jan-28 12:20 190 10 5.4-1.0 Light precipitation.
2015-Jan-28 11:50 190 9 gusting 20 5.4-1.0
2015-Jan-28 11:20 180 7 5.4-1.0
2015-Jan-28 10:50 190 9 5.4-1.0
2015-Jan-28 10:20 180 10 5.4-1.0
2015-Jan-28 09:50 180 9 5.4-1.0
2015-Jan-28 09:20 190 7 5.4-1.0
2015-Jan-28 08:50 180 7 5.4-1.0
2015-Jan-28 08:20 180 10 5.4-1.0